Simultaneous Nadir Overpasses (SNOs) Predictions

Prediction of SNOs between GOES-17 and METOP-A Satellite Orbit:

Table of predicted SNOs for the next 14.0 days since TLE Epoch: 1/2/2021
Index Date Time (GOES-17) GOES-17 Lat,Lon METOP-A Lat,Lon Distance(km) Time Diff (sec)
1 01/02/2021 17:28:28 -0.02,-137.22 -0.12,-136.63 66.30 80
2 01/04/2021 05:50:10 0.01,-137.20 -0.88,-141.27 463.91 80
3 01/05/2021 05:26:50 0.01,-137.19 0.22,-136.30 102.36 80
4 01/06/2021 17:48:22 -0.01,-137.19 0.82,-140.89 421.68 80
5 01/07/2021 17:25:02 -0.01,-137.18 -0.28,-135.91 144.06 80
6 01/09/2021 05:46:43 0.02,-137.15 -0.72,-140.55 387.71 80
7 01/10/2021 05:26:04 0.02,-137.13 0.39,-135.58 177.68 80
8 01/11/2021 17:42:15 -0.01,-137.12 0.66,-140.17 347.76 80
9 01/12/2021 17:24:16 -0.01,-137.10 -0.44,-135.19 217.32 80
10 01/14/2021 05:40:36 0.00,-137.05 -0.60,-139.82 315.28 80
11 01/15/2021 05:22:37 0.00,-137.03 0.50,-134.84 249.59 80
